Find Starlink 5117

NORAD ID: 54172 Int'l Des: 2022-141 Owner: SPXS Country: US Constellation: starlink operational
LEOCIRCULAR

当前视图

正在加载3D地球...

About Starlink 5117

Starlink 5117 (NORAD 54172) is a starlink constellation satellite (v1.5) launched Oct 28, 2022 by SPXS of US. It operates in LEO, CIRCULAR orbit with a mass of 305.00 kg.

关于 Starlink 5117

正在加载描述...

即将过境

Passes for default location (London). Set your location on the main map for personalized predictions.

高度历史

Loading altitude history...

两行轨道根数

1 54172U 22141R 26167.02737507 .00000196 00000-0 30424-4 0 9995
2 54172 53.1625 282.5502 0001315 101.3195 258.7944 15.08828424200707
Epoch: Jun 16, 2026 • Age: 10 hours

当前状态

高度 542.0 km
速度 7.59 km/s
星下点 -6.33°S, 141.08°W
发射日期 Oct 28, 2022
运行时间 3.6 years
类型 internet

技术详情

分类 Payload
质量 305.00 kg
干质量 290.00 kg
总质量 305.00 kg
长度 0.20 m
直径 2.80 m
跨度 9.00 m
形状 Box + pan
制造商 SPXS
平台类型 Starlink
阶段状态 In Orbit
所有者/国家 SPXS/US

Most Searched